User: anonymous   Login
Location: Caltech
(34.1382°N, 118.1253°W)
Time: 21:55:14
(UTC-07:00)
Language:

Iridium 91 - Orbit

View from above orbital plane
View from above orbital plane
View from above satellite
View from above satellite

Ground track
Ground track

The orbit data is extracted from the following two-line orbital elements,

1 27372U 02005A   16238.56016921  .00000023  00000-0  11485-5 0  9997
2 27372  86.3947  51.3958 0002301  93.5830 329.9001 14.34214521769255
Epoch (UTC): 25 August 2016 13:26:38
Eccentricity: 0.0002301
inclination: 86.3947°
perigee height: 776 km
apogee height: 779 km
right ascension of ascending node: 51.3958°
argument of perigee: 93.5830°
revolutions per day: 14.34214521
mean anomaly at epoch: 329.9001°
orbit number at epoch: 76925

The dashed part of the orbit path shows where the satellite is in the earth's shadow,  

DLR